Regional Weather Roundup
Issued by NWS

Home | Current Version | Previous Version | Graphics & Text | Print | Product List | Glossary Off
Versions: 1 2 3 4 5 6 7 8 9 10 11 12 13 14 15 16 17 18 19 20 21 22 23 24 25 26 27 28 29 30 31 32 33 34 35 36 37 38 39 40 41 42 43 44 45 46 47 48 49 50

000
ASUS43 KMKX 261000
RWRWI

WISCONSIN REGIONAL WEATHER ROUNDUP
NATIONAL WEATHER SERVICE MILWAUKEE/SULLIVAN WI
500 AM CDT SUN MAR 26 2017

NOTE: "FAIR" INDICATES FEW OR NO CLOUDS BELOW 12,000 FEET WITH NO
SIGNIFICANT WEATHER AND/OR OBSTRUCTIONS TO VISIBILITY.

WIZ001-002-006>008-014>016-023>028-261100-
NORTHWEST WISCONSIN

CITY           SKY/WX    TMP DP  RH WIND       PRES   REMARKS
SUPERIOR ARPT  CLOUDY    33  32  98 NE8       30.03F WCI  25
ASHLAND        MIX PCPN  32  31  96 CALM      30.03F FOG
HAYWARD        LGT RAIN  35  32  88 NE6       29.98F FOG     WCI  30
SIREN          DRIZZLE   33  32  96 NE5       29.98F WCI  29
CUMBERLAND     LGT RAIN  32  32 100 NE5       29.96F WCI  27
RICE LAKE      CLOUDY    34  34  98 CALM      29.98F FOG
CHETEK         CLOUDY    34  34 100 CALM      29.96F FOG
LADYSMITH      CLOUDY    34  33  96 NE3       29.99F
EAU CLAIRE     NOT AVBL
MENOMONIE      CLOUDY    35  35  99 NE6       29.96F FOG     WCI  30
NEW RICHMOND   DRIZZLE   35  34  99 E5        29.96F WCI  30
OSCEOLA        LGT RAIN  36  36 100 E3        29.98F
$$

WIZ003>005-009-010-017-018-261100-
NORTH CENTRAL WISCONSIN

CITY           SKY/WX    TMP DP  RH WIND       PRES   REMARKS
MANITOWISH WTR CLOUDY    32  32 100 CALM      29.98F
ARBOR VITAE    CLOUDY    34  33  96 E3        29.98S FOG
WOODRUFF       CLOUDY    34  33  96 E3        29.98S FOG
RHINELANDER    CLOUDY    33  32  96 E12       29.98F WCI  24
EAGLE RIVER    CLOUDY    32  32 100 SE6       29.99S WCI  26
LAND O LAKES   MIX PCPN  32  32  99 SE7       30.00F WCI  26
PHILLIPS       CLOUDY    32  32 100 E3        29.97F FOG
TOMAHAWK       CLOUDY    32  31  96 E5        29.98S FOG     WCI  27
MEDFORD        MIX PCPN  32  31  98 E8        29.95F WCI  25
MERRILL        CLOUDY    32  32 100 E7        29.98F WCI  26
$$

WIZ029-030-035-036-043>047-261100-
CENTRAL WISCONSIN

CITY           SKY/WX    TMP DP  RH WIND       PRES   REMARKS
WAUSAU         MIX PCPN  32  32 100 E9        29.95F FOG     WCI  24
MOSINEE        MIX PCPN  32  32 100 E8        29.97F WCI  25
MARSHFIELD     LGT RAIN  33  31  92 E10       29.93F FOG     WCI  25
STEVENS POINT  MIX PCPN  31  31 100 NE9       29.97F WCI  23
WAUPACA        CLOUDY    36  35  96 NE6       29.98F WCI  31
WAUTOMA        CLOUDY    35  34  96 NE12      29.95F FOG     WCI  27
WISC RAPIDS    CLOUDY    34  34 100 E8        29.95F WCI  27
CAMP DOUGLAS   CLOUDY    36  36 100 E7        29.92F FOG     WCI  30
$$

WIZ011>013-019>022-031-037>040-048>050-261100-
NORTHEAST WISCONSIN

CITY           SKY/WX    TMP DP  RH WIND       PRES   REMARKS
ANTIGO         FOG       30  30 100 E8        29.98S VSB 1   WCI  23
SHAWANO        CLOUDY    34  33  93 NE12      30.01F FOG     WCI  26
OCONTO         CLOUDY    33  32  96 NE9       30.02F WCI  25
STURGEON BAY   CLOUDY    35  34  96 NE8       30.01  FOG     WCI  29
GREEN BAY      CLOUDY    35  35 100 NE10      29.99F FOG     WCI  27
MANITOWOC      NOT AVBL
APPLETON       DRIZZLE   34  34 100 NE10      29.95F WCI  26
CLINTONVILLE   DRIZZLE   32  32 100 NE7       29.99F WCI  26
OSHKOSH        LGT RAIN  36  35  96 NE10      29.95F VSB 1   WCI  28
$$

WIZ032>034-041-042-053>061-261100-
SOUTHWEST WISCONSIN

CITY           SKY/WX    TMP DP  RH WIND       PRES   REMARKS
LA CROSSE      LGT RAIN  38  36  92 NE3       29.92F
SPARTA         CLOUDY    35  35  99 E6        29.93F WCI  30
VIROQUA        CLOUDY    36  36 100 E12       29.89S WCI  27
BOSCOBEL       RAIN      39  37  93 NE3       29.89F FOG
PRAIRIE DU CHI DRIZZLE   39  38  97 CALM      29.88F
PLATTEVILLE    CLOUDY    40  40 100 NE13      29.85F WCI  33
$$

WIZ056-057-062-063-064-067-068-261100-
SOUTH CENTRAL WISCONSIN

CITY           SKY/WX    TMP DP  RH WIND       PRES   REMARKS
REEDSBURG      CLOUDY    37  37 100 E8        29.91F FOG     WCI  30
BARABOO/DELLS  FOG       37  36  97 NE9       29.91F VSB 3/4 WCI  30
LONE ROCK      LGT RAIN  40  38  93 E8        29.90F WCI  34
MINERAL POINT  CLOUDY    41  41 100 NE10      29.86F FOG
MADISON        CLOUDY    40  39  97 NE7       29.89F FOG
MIDDLETON      CLOUDY    41  41 100 E6        29.90S
WATERTOWN      CLOUDY    40  40 100 E10       29.90F FOG     WCI  33
MONROE         SNOW      41  41 100 NE10      29.85F VSB 1/4
JANESVILLE     CLOUDY    43  43 100 E9        29.86F FOG
$$

WIZ051-052-058>065-066-070>072-261100-
SOUTHEAST WISCONSIN

CITY           SKY/WX    TMP DP  RH WIND       PRES   REMARKS
MILWAUKEE      LGT RAIN  39  37  92 NE12      29.93F VSB 1   WCI  32
WAUKESHA       FOG       36  36 100 NE9       29.93S VSB 3/4 WCI  29
MILWAUKEE/TIMM CLOUDY    37  36  93 NE6       29.95S FOG     WCI  33
RACINE         FOG       40  38  93 NE9       29.93F VSB 1   WCI  34
KENOSHA        LGT RAIN  42  41  96 E10       29.90F VSB 1/2
FOND DU LAC    LGT RAIN  38  36  92 NE8       29.94F WCI  32
SHEBOYGAN      RAIN      37  36  96 NE12      29.96F FOG     WCI  29
WEST BEND      LGT RAIN  37  37 100 E13       29.94F WCI  29
JUNEAU         LGT RAIN  38  38  99 NE9       29.92F VSB 1   WCI  32
$$

LSZ147-162-261100-
LAKE SUPERIOR

STATION/POSITION TIME  TEMP    WIND        PRES    WAVE
                       AIR SEA DIR/SP/G            HT/PER
                 (UTC) (F)     (DEG/KT/KT) (MB)    (FT/S)
DEVILS ISLAND    0900   33     110/  7/  9 1018.3F
PORT WING        0940   33      40/  7/  8 1017.3S
SAXON HARBOR     0930   32      CALM  /  1 1016.6F
$$

LMZ867-665-643>646-261100-
LAKE MICHIGAN

STATION/POSITION TIME  TEMP    WIND        PRES    WAVE
                       AIR SEA DIR/SP/G            HT/PER
                 (UTC) (F)     (DEG/KT/KT) (MB)    (FT/S)
CHAMBERS ISLAND  0940   33      40/  8/ 10 1016.6F
NORTHPORT PIER   0940   33      80/ 14/ 18 1017.3F
SISTER BAY       0851   33     120/  8/ 13   N/A
KEWAUNEE LAKESHO 0930   36      50/  7/ 12 1015.5F
SHEBOYGAN LAKESH 0900   36      30/ 12/ 13 1015.5F
PORT WASHINGTON  0940   39      40/ 11/ 16 1015.6S
MILWAUKEE LAKESH 0930   38      20/ 12/ 14   N/A
KENOSHA   LAKESH 0900   39      30/ 11/ 12 1013.2
$$

TC  - TEMPERATURE IN CELSIUS
VSB - VISIBILITY IN STATUTE MILES
WCI - WIND CHILL INDEX
HX  - HEAT INDEX




USA.gov is the U.S. government's official web portal to all federal, state and local government web resources and services.